[[{"header":{"parameterUnit":"m.s-1","parameterCategory":1,"la1":30.2991,"la2":30.254,"lo1":-89.0895,"lo2":-89.0444,"dy":0.0017,"dx":0.0017,"nx":28,"ny":28,"refTime":"2024-11-25T09:00:00:Z","depth":0,"parameterNumber":2,"parameterNumberName":"U-component_of_WINDS"},"data":[0,0,0,0,0,0,0,0,0,0,0,0,0,0,0,0,0,0,0,0,0,0,0,0,0,0,0,0,0,0,0,0,0,0,0,0,0,0,0,0,0,0,0,0,0,0,0,0,0,0,0,0,0,0,0,0,0,0,-0.3829,-0.3828,0,-0.3722,-0.3721,-0.372,-0.3616,-0.3615,-0.3614,-0.3612,-0.3505,-0.3504,-0.3502,0,0,0,0,0,0,0,0,0,0,0,0,0,-0.3943,-0.3941,-0.3829,-0.3827,-0.3826,-0.3723,-0.3721,-0.372,-0.3617,-0.3615,-0.3613,-0.3612,-0.3506,-0.3504,-0.3502,0,0,0,0,0,0,0,0,0,0,0,0,0,-0.3871,-0.3941,-0.3829,-0.3762,-0.3755,-0.3723,-0.3721,-0.3719,-0.3617,-0.3615,-0.3613,-0.3611,-0.3507,-0.3504,-0.3502,-0.3528,0,0,-0.3495,-0.3494,0,0,0,0,0,0,0,0,-0.3875,-0.3867,-0.3773,-0.3767,-0.3759,-0.368,-0.3722,-0.3655,-0.3618,-0.367,-0.3612,-0.361,-0.3565,-0.3558,-0.3543,-0.3523,-0.3518,-0.3494,-0.3493,-0.3492,-0.3491,0,0,0,0,0,0,0,-0.388,-0.3871,-0.3787,-0.3772,-0.3763,-0.3738,-0.3725,-0.3709,-0.363,-0.3665,-0.3657,-0.3646,-0.3561,-0.3545,-0.3539,-0.3517,-0.3495,-0.3492,-0.3491,-0.349,-0.3509,-0.3511,0,0,0,0,0,0,-0.3895,-0.3876,-0.379,-0.3783,-0.3813,-0.3737,-0.3723,-0.3708,-0.363,-0.3616,-0.3648,-0.3641,-0.355,-0.3542,-0.3535,-0.3557,-0.3492,-0.349,-0.3488,-0.3507,-0.3509,-0.3511,0,0,0,0,0,0,-0.3898,-0.3889,-0.3794,-0.3827,-0.3813,-0.3737,-0.3721,-0.3707,-0.3691,-0.3617,-0.3603,-0.3646,-0.3548,-0.3539,-0.3529,-0.3552,-0.3489,-0.3487,-0.3505,-0.3508,-0.351,-0.3604,0,0,0,0,0,0,-0.3902,-0.389,-0.3899,-0.3828,-0.3812,-0.3791,-0.3722,-0.3706,-0.3687,-0.3677,-0.3611,-0.3599,-0.3546,-0.3534,-0.3527,-0.3548,-0.3485,-0.3502,-0.3506,-0.3509,-0.3598,-0.361,-0.3619,0,0,0,0,0,-0.3906,-0.3931,-0.39,-0.389,-0.3822,-0.3792,-0.3783,-0.3721,-0.3689,-0.3697,-0.3649,-0.3601,-0.3552,-0.3534,-0.3525,-0.3546,-0.3501,-0.3505,-0.3509,-0.3594,-0.3607,-0.3619,0,0,0,0,0,0,-0.4008,-0.392,-0.3885,-0.3888,-0.3848,-0.3775,-0.3783,-0.3738,-0.3707,-0.37,-0.3626,-0.3612,-0.361,-0.3577,-0.3559,-0.3565,-0.3519,-0.3522,-0.3586,-0.3598,-0.3609,-0.3615,-0.3483,0,0,0,0,0,-0.403,-0.4013,-0.3938,-0.3948,-0.3929,-0.386,-0.3845,-0.3801,-0.3757,-0.374,-0.3691,-0.3651,-0.3625,-0.3611,-0.3584,-0.3594,-0.3576,-0.3604,-0.3614,-0.3623,-0.3626,-0.3625,-0.3636,-0.3526,-0.3526,-0.3526,0,0,-0.4077,-0.4027,-0.4021,-0.3967,-0.393,-0.3914,-0.3847,-0.3833,-0.3819,-0.3738,-0.3724,-0.3688,-0.3638,-0.3638,-0.3635,-0.361,-0.3653,-0.3629,-0.3636,-0.3634,-0.3631,-0.3641,-0.3651,-0.3529,-0.3528,-0.3528,0,0,-0.4153,-0.4115,-0.4116,-0.4081,-0.4027,-0.398,-0.3981,-0.3914,-0.3886,-0.3872,-0.3809,-0.3793,-0.3752,-0.3717,-0.3695,-0.3756,-0.3709,-0.375,-0.3803,-0.3804,-0.3812,-0.382,-0.3838,-0.3846,-0.3753,-0.3753,-0.3754,0,-0.4217,-0.4189,-0.4123,-0.4112,-0.4089,-0.4013,-0.4014,-0.3984,-0.3924,-0.391,-0.3883,-0.3828,-0.3789,-0.3778,-0.3792,-0.3778,-0.3775,-0.3756,-0.3816,-0.3823,-0.3829,-0.3846,-0.3853,-0.3758,-0.3758,-0.3757,-0.3757,0,-0.427,-0.4252,-0.426,-0.4202,-0.418,-0.4176,-0.4108,-0.4094,-0.4052,-0.4009,-0.3994,-0.3945,-0.3905,-0.39,-0.386,-0.3882,-0.3868,-0.383,-0.3782,-0.3845,-0.386,-0.3866,-0.3766,-0.3764,-0.3762,-0.3761,0,0,-0.4406,-0.431,-0.4314,-0.4286,-0.422,-0.4204,-0.4196,-0.4156,-0.4144,-0.4106,-0.4095,-0.4061,-0.4025,-0.3999,-0.3954,-0.3955,-0.4003,-0.3916,-0.3914,-0.3931,-0.4021,-0.4048,-0.4057,-0.3972,-0.3973,-0.3974,-0.4024,0,-0.4468,-0.4446,-0.4386,-0.4382,-0.4363,-0.4291,-0.4283,-0.4241,-0.42,-0.4178,-0.4133,-0.4109,-0.4064,-0.4048,-0.4046,-0.3998,-0.4019,-0.3994,-0.396,-0.3959,-0.3971,-0.4065,-0.4094,-0.4143,-0.403,-0.4031,-0.4032,0,-0.4537,-0.45,-0.4495,-0.4427,-0.4417,-0.4411,-0.4368,-0.4348,-0.4299,-0.4269,-0.424,-0.4189,-0.4175,-0.4133,-0.4111,-0.4094,-0.4077,-0.4052,-0.4052,-0.4044,-0.3997,-0.4057,-0.4158,-0.4165,-0.4041,-0.404,-0.4039,0,-0.4632,-0.4583,-0.4571,-0.455,-0.4472,-0.4469,-0.4436,-0.4385,-0.4364,-0.4328,-0.4313,-0.4276,-0.4255,-0.4227,-0.4167,-0.4142,-0.4151,-0.4104,-0.4124,-0.4125,-0.4127,-0.4127,-0.4224,-0.4122,-0.4122,-0.4121,-0.4121,0,-0.4705,-0.4704,-0.4613,-0.4606,-0.4602,-0.4533,-0.4531,-0.4491,-0.4447,-0.443,-0.4367,-0.4353,-0.4277,-0.4254,-0.4208,-0.4195,-0.4187,-0.4161,-0.4148,-0.4165,-0.4168,-0.415,-0.4144,-0.4123,-0.4123,-0.4123,-0.4122,0,-0.481,-0.4749,-0.4732,-0.4659,-0.464,-0.464,-0.4577,-0.4568,-0.4523,-0.4503,-0.4495,-0.4424,-0.4394,-0.4332,-0.4286,-0.4254,-0.4251,-0.423,-0.4267,-0.4258,-0.428,-0.4278,-0.4367,-0.4374,-0.4271,-0.4272,-0.4273,0,-0.4859,-0.4856,-0.4782,-0.4766,-0.4735,-0.4711,-0.4688,-0.4621,-0.46,-0.4543,-0.454,-0.4505,-0.4472,-0.4427,-0.4371,-0.4335,-0.4311,-0.4344,-0.4305,-0.432,-0.4307,-0.4307,-0.4304,-0.4353,-0.4354,-0.4355,-0.4356,0,-0.4952,-0.4921,-0.4891,-0.485,-0.4825,-0.479,-0.4752,-0.4742,-0.4666,-0.4646,-0.4613,-0.4588,-0.4539,-0.4504,-0.4459,-0.4425,-0.4377,-0.437,-0.4371,-0.4387,-0.4407,-0.4393,-0.4288,-0.4367,-0.4366,-0.4365,-0.4365,-0.4364,-0.5028,-0.502,-0.4966,-0.4934,-0.4898,-0.4863,-0.4849,-0.4802,-0.4773,-0.4727,-0.469,-0.466,-0.4609,-0.4543,-0.4512,-0.4487,-0.4464,-0.4468,-0.4469,-0.447,-0.4475,-0.4414,-0.448,-0.4479,-0.4479,-0.4478,-0.4478,0,-0.5114,-0.5075,-0.5047,-0.4994,-0.4968,-0.4926,-0.4881,-0.4862,-0.4836,-0.4793,-0.4762,-0.4724,-0.4689,-0.463,-0.459,-0.4581,-0.4558,-0.4573,-0.4571,-0.4564,-0.45,-0.45,-0.4592,-0.4592,-0.4592,-0.4592,-0.4592,-0.4592,-0.5156,-0.514,-0.5103,-0.5068,-0.5029,-0.4999,-0.4976,-0.4943,-0.4908,-0.4867,-0.4837,-0.4799,-0.4749,-0.4705,-0.4671,-0.4654,-0.4641,-0.4662,-0.4638,-0.4579,-0.4569,-0.4558,-0.4558,-0.466,-0.4661,-0.4703,-0.4704,-0.4704]},{"header":{"parameterUnit":"m.s-1","parameterCategory":1,"la1":30.2991,"la2":30.254,"lo1":-89.0895,"lo2":-89.0444,"dy":0.0017,"dx":0.0017,"nx":28,"ny":28,"refTime":"2024-11-25T09:00:00:Z","depth":0,"parameterNumber":3,"parameterNumberName":"V-component_of_WINDS"},"data":[0,0,0,0,0,0,0,0,0,0,0,0,0,0,0,0,0,0,0,0,0,0,0,0,0,0,0,0,0,0,0,0,0,0,0,0,0,0,0,0,0,0,0,0,0,0,0,0,0,0,0,0,0,0,0,0,0,0,2.6101,2.6101,0,2.6155,2.6156,2.6157,2.6211,2.6212,2.6213,2.6213,2.6266,2.6266,2.6267,0,0,0,0,0,0,0,0,0,0,0,0,0,2.6042,2.6042,2.6101,2.6102,2.6102,2.6155,2.6156,2.6157,2.6211,2.6212,2.6213,2.6214,2.6265,2.6266,2.6267,0,0,0,0,0,0,0,0,0,0,0,0,0,2.6079,2.6043,2.6101,2.6136,2.614,2.6155,2.6156,2.6157,2.6211,2.6212,2.6213,2.6214,2.6265,2.6266,2.6267,2.6251,0,0,2.627,2.6271,0,0,0,0,0,0,0,0,2.6077,2.6081,2.613,2.6133,2.6138,2.6178,2.6154,2.6188,2.6211,2.6184,2.6213,2.6215,2.6235,2.6239,2.6247,2.6254,2.6256,2.6271,2.6271,2.6272,2.6272,0,0,0,0,0,0,0,2.6074,2.6079,2.6122,2.6131,2.6135,2.6148,2.6155,2.6161,2.6202,2.6186,2.619,2.6196,2.6238,2.6245,2.6248,2.6257,2.627,2.6271,2.6272,2.6272,2.6257,2.6256,0,0,0,0,0,0,2.6066,2.6076,2.6121,2.6124,2.6109,2.6148,2.6156,2.6164,2.6203,2.621,2.6195,2.6199,2.6243,2.6247,2.625,2.6237,2.6272,2.6273,2.6273,2.6258,2.6256,2.6255,0,0,0,0,0,0,2.6065,2.607,2.6118,2.6101,2.6109,2.6148,2.6157,2.6164,2.6172,2.6209,2.6217,2.6196,2.6244,2.6249,2.6252,2.6239,2.6273,2.6274,2.6259,2.6257,2.6256,2.6208,0,0,0,0,0,0,2.6063,2.6069,2.6064,2.6101,2.6109,2.6119,2.6156,2.6164,2.6174,2.6179,2.6212,2.6218,2.6245,2.625,2.6253,2.6241,2.6275,2.626,2.6258,2.6256,2.621,2.6204,2.6199,0,0,0,0,0,2.6061,2.6047,2.6063,2.6068,2.6104,2.6118,2.6123,2.6155,2.6173,2.6168,2.6192,2.6217,2.624,2.625,2.6253,2.6242,2.6261,2.6259,2.6257,2.6213,2.6206,2.62,0,0,0,0,0,0,2.6005,2.6052,2.6071,2.6069,2.6089,2.6128,2.6122,2.6146,2.6162,2.6165,2.6204,2.621,2.6209,2.6226,2.6236,2.623,2.6254,2.6252,2.622,2.6213,2.6208,2.6204,2.6276,0,0,0,0,0,2.5993,2.6002,2.6042,2.6036,2.6046,2.6082,2.609,2.6113,2.6135,2.6144,2.6169,2.6189,2.6201,2.6207,2.622,2.6213,2.6222,2.6207,2.6201,2.6196,2.6195,2.6194,2.6189,2.6248,2.6248,2.6248,0,0,2.5967,2.5994,2.5997,2.6025,2.6044,2.6053,2.6089,2.6095,2.6102,2.6145,2.615,2.6169,2.6194,2.6192,2.6192,2.6205,2.6181,2.6193,2.6189,2.6191,2.6191,2.6186,2.6181,2.6246,2.6246,2.6247,0,0,2.5925,2.5945,2.5944,2.5963,2.5992,2.6017,2.6016,2.6051,2.6066,2.6072,2.6105,2.6113,2.6132,2.6149,2.616,2.6127,2.6151,2.6129,2.6101,2.61,2.6096,2.6092,2.6082,2.6077,2.6127,2.6127,2.6127,0,2.5889,2.5904,2.594,2.5946,2.5958,2.5998,2.5998,2.6013,2.6044,2.6052,2.6066,2.6093,2.6112,2.6116,2.6108,2.6115,2.6117,2.6126,2.6094,2.609,2.6087,2.6078,2.6074,2.6125,2.6125,2.6125,2.6126,0,2.5859,2.5869,2.5864,2.5896,2.5907,2.5909,2.5945,2.5952,2.5975,2.5998,2.6005,2.603,2.6049,2.6052,2.6072,2.6059,2.6067,2.6086,2.6112,2.6078,2.607,2.6067,2.6121,2.6122,2.6123,2.6123,0,0,2.5783,2.5836,2.5834,2.585,2.5886,2.5894,2.5898,2.5919,2.5925,2.5945,2.595,2.5966,2.5986,2.5998,2.6022,2.602,2.5995,2.6041,2.6042,2.6033,2.5984,2.5971,2.5966,2.6011,2.601,2.601,2.5983,0,2.5749,2.5761,2.5794,2.5796,2.5806,2.5846,2.585,2.5872,2.5894,2.5905,2.5929,2.5941,2.5964,2.5973,2.5973,2.5998,2.5986,2.6,2.6017,2.6017,2.6011,2.5962,2.5947,2.592,2.598,2.5979,2.5979,0,2.571,2.5731,2.5734,2.5771,2.5777,2.578,2.5803,2.5814,2.584,2.5856,2.5871,2.5898,2.5904,2.5927,2.5938,2.5947,2.5955,2.5968,2.5968,2.5972,2.5997,2.5966,2.5912,2.5909,2.5974,2.5975,2.5975,0,2.5657,2.5685,2.5691,2.5703,2.5746,2.5748,2.5766,2.5793,2.5805,2.5824,2.5832,2.5851,2.5862,2.5876,2.5907,2.5921,2.5915,2.594,2.5929,2.5928,2.5927,2.5927,2.5876,2.593,2.593,2.593,2.593,0,2.5617,2.5617,2.5669,2.5673,2.5675,2.5713,2.5714,2.5736,2.576,2.5769,2.5802,2.581,2.585,2.5862,2.5886,2.5892,2.5896,2.591,2.5916,2.5908,2.5906,2.5915,2.5918,2.5929,2.5929,2.5929,2.5929,0,2.5558,2.5592,2.5603,2.5644,2.5654,2.5654,2.5689,2.5694,2.5719,2.5729,2.5734,2.5772,2.5788,2.582,2.5844,2.5861,2.5862,2.5872,2.5854,2.5858,2.5847,2.5848,2.58,2.5797,2.5851,2.585,2.585,0,2.5531,2.5533,2.5575,2.5585,2.5602,2.5615,2.5628,2.5665,2.5677,2.5708,2.571,2.5729,2.5746,2.5769,2.5799,2.5818,2.583,2.5812,2.5833,2.5825,2.5833,2.5833,2.5834,2.5808,2.5807,2.5807,2.5806,0,2.5479,2.5497,2.5514,2.5538,2.5552,2.5572,2.5594,2.5599,2.5641,2.5652,2.567,2.5684,2.571,2.5729,2.5753,2.577,2.5796,2.5799,2.5798,2.579,2.578,2.5788,2.5843,2.58,2.5801,2.5801,2.5802,2.5802,2.5437,2.5442,2.5473,2.5492,2.5513,2.5533,2.5541,2.5567,2.5583,2.5609,2.5629,2.5646,2.5673,2.5708,2.5724,2.5737,2.5749,2.5747,2.5747,2.5746,2.5744,2.5777,2.5741,2.5742,2.5742,2.5742,2.5742,0,2.5389,2.5412,2.5429,2.546,2.5474,2.5498,2.5524,2.5534,2.5549,2.5573,2.559,2.5612,2.563,2.5662,2.5683,2.5688,2.57,2.5692,2.5693,2.5697,2.5731,2.5731,2.5682,2.5682,2.5682,2.5682,2.5682,2.5682,2.5366,2.5377,2.5398,2.5419,2.5441,2.5459,2.5472,2.5491,2.5511,2.5534,2.555,2.5571,2.5598,2.5622,2.5641,2.565,2.5657,2.5646,2.5658,2.5689,2.5695,2.57,2.57,2.5646,2.5646,2.5624,2.5624,2.5624]}]]